GW0719 Weather Reports


Display with metric or nautical units.
time (UTC)temp
F
wind
direction
speed
MPH
gust
MPH
rain 1hr
in
rain 24hr
in
rain mn
in
humidity
%
barometer
mb
20260509194822 64 248 0.0 1.0 0.00 0.00 0.00 10 1019.6
20260509194319 64 239 0.0 0.0 0.00 0.00 0.00 10 1019.5
20260509193815 63 261 0.0 0.0 0.00 0.00 0.00 10 1019.5
20260509193315 63 67 0.0 0.0 0.00 0.00 0.00 10 1019.8
20260509192812 63 89 0.0 0.0 0.00 0.00 0.00 10 1019.4
20260509192308 62 65 0.0 0.0 0.00 0.00 0.00 10 1019.5
20260509191803 62 54 0.0 0.0 0.00 0.00 0.00 10 1019.7
20260509191259 62 51 0.0 0.0 0.00 0.00 0.00 10 1019.5
20260509190755 62 43 0.0 0.0 0.00 0.00 0.00 10 1019.7
20260509190253 63 47 0.0 0.0 0.00 0.00 0.00 10 1019.6
20260509185750 62 77 0.0 0.0 0.00 0.00 0.00 10 1019.7
20260509185246 61 68 0.0 0.0 0.00 0.00 0.00 10 1019.4
20260509184743 62 95 0.0 0.0 0.00 0.00 0.00 10 1019.4
20260509184241 61 152 0.0 1.0 0.00 0.00 0.00 10 1019.5
20260509183737 63 104 0.0 0.0 0.00 0.00 0.00 10 1019.6
20260509183232 62 49 0.0 0.0 0.00 0.00 0.00 10 1019.6
20260509182728 62 50 0.0 0.0 0.00 0.00 0.00 10 1019.5
20260509182226 61 49 0.0 0.0 0.00 0.00 0.00 10 1019.4
20260509181723 62 44 0.0 0.0 0.00 0.00 0.00 10 1019.5
20260509181220 62 52 0.0 0.0 0.00 0.00 0.00 10 1019.6
20260509180717 61 57 0.0 0.0 0.00 0.00 0.00 10 1019.6
20260509180213 61 54 0.0 0.0 0.00 0.00 0.00 10 1019.5
20260509175710 62 52 0.0 0.0 0.00 0.00 0.00 10 1019.7
20260509175207 63 355 0.0 0.0 0.00 0.00 0.00 10 1019.2
20260509174702 63 258 0.0 0.0 0.00 0.00 0.00 10 1019.4
20260509174157 63 290 0.0 0.0 0.00 0.00 0.00 10 1019.2
20260509173653 62 51 0.0 0.0 0.00 0.00 0.00 10 1019.2
20260509173149 62 52 0.0 0.0 0.00 0.00 0.00 10 1019.4
20260509172646 61 325 0.0 0.0 0.00 0.00 0.00 10 1019.5
20260509172142 61 350 0.0 0.0 0.00 0.00 0.00 10 1019.2
20260509171638 61 5 0.0 0.0 0.00 0.00 0.00 10 1018.9
20260509171134 61 38 0.0 0.0 0.00 0.00 0.00 10 1019.4
20260509170631 61 358 0.0 0.0 0.00 0.00 0.00 10 1019.1
20260509170127 62 74 0.0 0.0 0.00 0.00 0.00 10 1019.2
20260509165625 61 68 0.0 0.0 0.00 0.00 0.00 10 1019.2
20260509165121 60 57 0.0 0.0 0.00 0.00 0.00 10 1019.4
20260509164617 60 54 0.0 0.0 0.00 0.00 0.00 10 1019.4
20260509164113 60 48 0.0 0.0 0.00 0.00 0.00 10 1019.1
20260509163611 61 80 0.0 0.0 0.00 0.00 0.00 10 1019.1
20260509163106 60 41 0.0 0.0 0.00 0.00 0.00 10 1019.1
20260509162604 60 50 0.0 0.0 0.00 0.00 0.00 10 1019.2
20260509162100 60 55 0.0 0.0 0.00 0.00 0.00 10 1019.1
20260509161556 60 92 0.0 0.0 0.00 0.00 0.00 10 1019.1
20260509161051 60 47 0.0 0.0 0.00 0.00 0.00 10 1019.1
20260509160547 60 48 0.0 0.0 0.00 0.00 0.00 10 1018.9
20260509160042 59 39 0.0 0.0 0.00 0.00 0.00 10 1018.7
20260509155539 59 41 0.0 0.0 0.00 0.00 0.00 10 1018.9
20260509155035 59 7 0.0 0.0 0.00 0.00 0.00 10 1018.7
20260509154531 58 36 0.0 0.0 0.00 0.00 0.00 10 1018.8
20260509154029 58 36 0.0 0.0 0.00 0.00 0.00 10 1018.8
20260509153526 57 45 0.0 0.0 0.00 0.00 0.00 10 1018.7
20260509153023 57 4 0.0 0.0 0.00 0.00 0.00 10 1018.7
20260509152519 57 45 0.0 0.0 0.00 0.00 0.00 10 1018.6
20260509152015 56 49 0.0 0.0 0.00 0.00 0.00 10 1018.8
20260509151512 56 51 0.0 0.0 0.00 0.00 0.00 10 1018.7
20260509151010 56 44 0.0 0.0 0.00 0.00 0.00 10 1018.6
20260509150507 56 79 0.0 0.0 0.00 0.00 0.00 10 1018.6
20260509150006 55 55 0.0 0.0 0.00 0.00 0.00 10 1018.6
20260509145501 55 64 0.0 0.0 0.00 0.00 0.00 10 1018.7
20260509144956 55 64 0.0 0.0 0.00 0.00 0.00 10 1018.5
20260509144453 54 61 0.0 0.0 0.00 0.00 0.00 10 1018.4
20260509143950 54 59 0.0 0.0 0.00 0.00 0.00 10 1018.1
20260509143447 54 69 0.0 0.0 0.00 0.00 0.00 10 1018.5
20260509142944 53 62 0.0 0.0 0.00 0.00 0.00 10 1018.3
20260509142440 53 64 0.0 0.0 0.00 0.00 0.00 10 1018.4
20260509141936 53 55 0.0 0.0 0.00 0.00 0.00 10 1018.3
20260509141433 52 55 0.0 0.0 0.00 0.00 0.00 10 1018.1
20260509140930 52 53 0.0 0.0 0.00 0.00 0.00 10 1018.0
20260509140426 52 62 0.0 0.0 0.00 0.00 0.00 10 1018.1
20260509135924 52 56 0.0 0.0 0.00 0.00 0.00 10 1017.9
20260509135421 51 46 0.0 0.0 0.00 0.00 0.00 10 1018.1
20260509134919 51 59 0.0 0.0 0.00 0.00 0.00 10 1018.1
20260509134416 51 63 0.0 0.0 0.00 0.00 0.00 10 1017.9
20260509133913 51 48 0.0 0.0 0.00 0.00 0.00 10 1017.8
20260509133410 51 51 0.0 0.0 0.00 0.00 0.00 10 1017.9
20260509132908 50 56 0.0 0.0 0.00 0.00 0.00 10 1017.8
20260509132406 50 71 0.0 0.0 0.00 0.00 0.00 10 1017.7
20260509131903 50 45 0.0 0.0 0.00 0.00 0.00 10 1017.7
20260509131400 50 48 0.0 0.0 0.00 0.00 0.00 10 1017.6
20260509130856 50 45 0.0 0.0 0.00 0.00 0.00 10 1017.8
20260509130351 50 43 0.0 0.0 0.00 0.00 0.00 10 1017.9
20260509125849 50 45 0.0 0.0 0.00 0.00 0.00 10 1017.7
20260509125345 49 37 0.0 0.0 0.00 0.00 0.00 10 1017.6
20260509124841 49 44 0.0 0.0 0.00 0.00 0.00 10 1017.5
20260509124338 49 34 0.0 0.0 0.00 0.00 0.00 10 1017.5
20260509123836 48 38 0.0 0.0 0.00 0.00 0.00 10 1017.5
20260509123333 49 1 0.0 0.0 0.00 0.00 0.00 10 1017.6
20260509122828 49 328 0.0 0.0 0.00 0.00 0.00 10 1017.3
20260509122326 49 10 0.0 0.0 0.00 0.00 0.00 10 1017.3
20260509121823 48 272 0.0 1.0 0.00 0.00 0.00 10 1017.3
20260509121320 49 43 0.0 0.0 0.00 0.00 0.00 10 1016.9
20260509120818 49 11 0.0 0.0 0.00 0.00 0.00 10 1016.8
20260509120316 49 57 0.0 0.0 0.00 0.00 0.00 10 1017.0
20260509115814 49 69 0.0 0.0 0.00 0.00 0.00 10 1016.5
20260509115310 49 63 0.0 0.0 0.00 0.00 0.00 10 1016.7
20260509114808 48 52 0.0 0.0 0.00 0.00 0.00 10 1016.7
20260509114307 48 37 0.0 0.0 0.00 0.00 0.00 10 1016.4
20260509113806 48 38 0.0 0.0 0.00 0.00 0.00 10 1016.5
20260509113302 49 53 0.0 0.0 0.00 0.00 0.00 10 1016.2
20260509112759 49 46 0.0 0.0 0.00 0.00 0.00 10 1016.3
20260509112256 49 46 0.0 0.0 0.00 0.00 0.00 10 1016.4
20260509111753 49 51 0.0 0.0 0.00 0.00 0.00 10 1016.4
20260509111250 49 60 0.0 0.0 0.00 0.00 0.00 10 1016.1
20260509110747 49 41 0.0 0.0 0.00 0.00 0.00 10 1015.8
20260509110244 49 44 0.0 0.0 0.00 0.00 0.00 10 1015.9
20260509105742 49 45 0.0 0.0 0.00 0.00 0.00 10 1015.9
20260509105239 50 42 0.0 0.0 0.00 0.00 0.00 10 1015.9
20260509104736 50 46 0.0 0.0 0.00 0.00 0.00 10 1015.9
20260509104233 50 40 0.0 0.0 0.00 0.00 0.00 10 1016.1
20260509103731 50 36 0.0 1.0 0.00 0.00 0.00 10 1015.8
20260509103228 49 54 0.0 0.0 0.00 0.00 0.00 10 1015.9
20260509102726 48 51 0.0 0.0 0.00 0.00 0.00 10 1015.8
20260509102223 49 51 0.0 0.0 0.00 0.00 0.00 10 1015.7
20260509101719 49 51 0.0 0.0 0.00 0.00 0.00 10 1015.6
20260509101216 50 48 0.0 0.0 0.00 0.00 0.00 10 1015.6
20260509100713 49 48 0.0 0.0 0.00 0.00 0.00 10 1015.4
20260509100210 48 48 0.0 0.0 0.00 0.00 0.00 10 1015.4
20260509095707 49 48 0.0 0.0 0.00 0.00 0.00 10 1015.4
20260509095204 49 37 0.0 0.0 0.00 0.00 0.00 10 1015.7
20260509094701 49 44 0.0 0.0 0.00 0.00 0.00 10 1015.4
20260509094158 49 38 0.0 0.0 0.00 0.00 0.00 10 1015.1
20260509093656 49 19 0.0 0.0 0.00 0.00 0.00 10 1015.6
20260509093153 49 38 0.0 0.0 0.00 0.00 0.00 10 1015.3
20260509092651 49 30 0.0 0.0 0.00 0.00 0.00 10 1015.2
20260509092149 50 32 0.0 0.0 0.00 0.00 0.00 10 1015.2
20260509091647 50 42 0.0 0.0 0.00 0.00 0.00 10 1015.2
20260509091143 51 52 0.0 0.0 0.00 0.00 0.00 10 1015.0
20260509090641 51 51 0.0 0.0 0.00 0.00 0.00 10 1015.0
20260509090138 50 47 0.0 0.0 0.00 0.00 0.00 10 1014.8
20260509085635 50 49 0.0 0.0 0.00 0.00 0.00 10 1015.1
20260509085131 50 49 0.0 0.0 0.00 0.00 0.00 10 1015.1
20260509084628 50 46 0.0 0.0 0.00 0.00 0.00 10 1015.1
20260509084125 50 46 0.0 0.0 0.00 0.00 0.00 10 1015.0
20260509083623 49 37 0.0 0.0 0.00 0.00 0.00 10 1015.0
20260509083119 50 35 0.0 0.0 0.00 0.00 0.00 10 1015.0
20260509082617 50 23 0.0 0.0 0.00 0.00 0.00 10 1014.8
20260509082113 50 1 0.0 0.0 0.00 0.00 0.00 10 1014.7
20260509081611 50 334 0.0 0.0 0.00 0.00 0.00 10 1015.0
20260509081107 51 21 0.0 0.0 0.00 0.00 0.00 10 1014.8
20260509080605 50 49 0.0 0.0 0.00 0.00 0.00 10 1014.6
20260509075601 50 49 0.0 0.0 0.00 0.00 0.00 10 1014.7
20260509075058 50 36 0.0 0.0 0.00 0.00 0.00 10 1014.6
20260509074555 50 22 0.0 0.0 0.00 0.00 0.00 10 1014.7
20260509074051 50 15 0.0 0.0 0.00 0.00 0.00 10 1014.6
20260509073548 52 31 0.0 0.0 0.00 0.00 0.00 10 1014.5
20260509073045 52 2 0.0 0.0 0.00 0.00 0.00 10 1014.5
20260509072541 53 10 0.0 0.0 0.00 0.00 0.00 10 1014.4
20260509072038 53 352 0.0 0.0 0.00 0.00 0.00 10 1014.2
20260509071535 53 33 0.0 0.0 0.00 0.00 0.00 10 1014.3
20260509071033 54 56 0.0 0.0 0.00 0.00 0.00 10 1014.1
20260509070530 54 52 0.0 0.0 0.00 0.00 0.00 10 1013.9
20260509070026 54 62 0.0 0.0 0.00 0.00 0.00 10 1014.0
20260509065521 54 81 0.0 0.0 0.00 0.00 0.00 10 1014.0
20260509065018 54 100 0.0 0.0 0.00 0.00 0.00 10 1013.9
20260509064515 54 78 0.0 0.0 0.00 0.00 0.00 10 1013.9
20260509064013 54 75 0.0 0.0 0.00 0.00 0.00 10 1013.9
20260509063508 54 70 0.0 0.0 0.00 0.00 0.00 10 1013.7
20260509063006 54 49 0.0 0.0 0.00 0.00 0.00 10 1013.9
20260509062503 54 39 0.0 0.0 0.00 0.00 0.00 10 1014.1
20260509062001 53 39 0.0 0.0 0.00 0.00 0.00 10 1014.0
20260509061457 53 22 0.0 0.0 0.00 0.00 0.00 10 1013.7
20260509060954 53 23 0.0 0.0 0.00 0.00 0.00 10 1014.0
20260509060452 53 27 0.0 0.0 0.00 0.00 0.00 10 1013.9
20260509055948 53 51 0.0 0.0 0.00 0.00 0.00 10 1013.7
20260509055443 54 54 0.0 0.0 0.00 0.00 0.00 10 1013.5
20260509054939 54 49 0.0 0.0 0.00 0.00 0.00 10 1013.6
20260509054436 54 49 0.0 0.0 0.00 0.00 0.00 10 1013.5
20260509053934 55 51 0.0 0.0 0.00 0.00 0.00 10 1013.2
20260509053432 55 52 0.0 0.0 0.00 0.00 0.00 10 1013.5
20260509052929 55 44 0.0 0.0 0.00 0.00 0.00 10 1013.4
20260509052427 55 42 0.0 0.0 0.00 0.00 0.00 10 1013.2
20260509051925 55 42 0.0 0.0 0.00 0.00 0.00 10 1013.3
20260509051422 55 38 0.0 0.0 0.00 0.00 0.00 10 1013.1
20260509050919 55 37 0.0 0.0 0.00 0.00 0.00 10 1013.3
20260509050416 55 47 0.0 0.0 0.00 0.00 0.00 10 1013.0
20260509045912 56 49 0.0 0.0 0.00 0.00 0.00 10 1013.1
20260509045409 56 41 0.0 0.0 0.00 0.00 0.00 10 1012.9
20260509044906 57 40 0.0 0.0 0.00 0.00 0.00 10 1013.0
20260509044404 57 37 0.0 0.0 0.00 0.00 0.00 10 1012.7
20260509043901 57 40 0.0 0.0 0.00 0.00 0.00 10 1012.9
20260509043356 58 32 0.0 0.0 0.00 0.00 0.00 10 1012.6
20260509042852 58 35 0.0 0.0 0.00 0.00 0.00 10 1012.5
20260509042349 58 30 0.0 0.0 0.00 0.00 0.00 10 1012.3
20260509041846 58 27 0.0 0.0 0.00 0.00 0.00 10 1012.6
20260509041343 58 41 0.0 0.0 0.00 0.00 0.00 10 1012.2
20260509040841 57 22 0.0 0.0 0.00 0.00 0.00 10 1012.3
20260509040339 56 20 0.0 0.0 0.00 0.00 0.00 10 1011.9
20260509035835 56 19 0.0 0.0 0.00 0.00 0.00 10 1011.8
20260509035333 57 9 0.0 0.0 0.00 0.00 0.00 10 1011.8
20260509034828 58 8 0.0 0.0 0.00 0.00 0.00 10 1011.9
20260509034327 59 25 0.0 0.0 0.00 0.00 0.00 10 1011.6
20260509033823 59 27 0.0 0.0 0.00 0.00 0.00 10 1011.4
20260509033320 59 29 0.0 0.0 0.00 0.00 0.00 10 1011.4
20260509032817 59 27 0.0 0.0 0.00 0.00 0.00 10 1011.4
20260509032314 60 41 0.0 0.0 0.00 0.00 0.00 10 1011.5
20260509031812 60 33 0.0 0.0 0.00 0.00 0.00 10 1011.3
20260509031309 60 33 0.0 0.0 0.00 0.00 0.00 10 1011.2
20260509030807 60 35 0.0 0.0 0.00 0.00 0.00 10 1011.3
20260509030304 61 19 0.0 0.0 0.00 0.00 0.00 10 1011.0
20260509025801 61 38 0.0 0.0 0.00 0.00 0.00 10 1010.8
20260509025256 62 31 0.0 0.0 0.00 0.00 0.00 10 1010.8
20260509024752 62 35 0.0 0.0 0.00 0.00 0.00 10 1010.5
20260509024248 62 29 0.0 0.0 0.00 0.00 0.00 10 1011.0
20260509023746 62 44 0.0 0.0 0.00 0.00 0.00 10 1010.8
20260509023243 63 31 0.0 0.0 0.00 0.00 0.00 10 1010.4
20260509022739 64 36 0.0 0.0 0.00 0.00 0.00 10 1010.3
20260509022237 64 45 0.0 0.0 0.00 0.00 0.00 10 1010.4
20260509021733 64 41 0.0 0.0 0.00 0.00 0.00 10 1010.4
20260509021231 65 37 0.0 0.0 0.00 0.00 0.00 10 1010.3
20260509020729 66 39 0.0 0.0 0.00 0.00 0.00 10 1010.4
20260509020226 66 31 0.0 0.0 0.00 0.00 0.00 10 1010.4
20260509015724 67 33 0.0 0.0 0.00 0.00 0.00 10 1010.2
20260509015222 67 34 0.0 0.0 0.00 0.00 0.00 10 1010.5
20260509014718 67 42 0.0 0.0 0.00 0.00 0.00 10 1010.3
20260509014215 68 37 0.0 0.0 0.00 0.00 0.00 10 1010.5
20260509013712 68 31 0.0 0.0 0.00 0.00 0.00 10 1010.4
20260509013207 68 34 0.0 0.0 0.00 0.00 0.00 10 1010.4
20260509012704 69 1 0.0 0.0 0.00 0.00 0.00 10 1010.2
20260509012200 69 9 0.0 0.0 0.00 0.00 0.00 10 1010.3
20260509011658 69 11 0.0 2.0 0.00 0.00 0.00 10 1010.5
20260509011155 69 26 1.0 2.0 0.00 0.00 0.00 10 1010.2
20260509010653 69 21 0.0 0.0 0.00 0.00 0.00 10 1010.4
20260509010149 69 23 0.0 0.0 0.00 0.00 0.00 10 1010.2
20260509005647 69 20 0.0 1.0 0.00 0.00 0.00 10 1010.3
20260509005143 69 3 2.0 3.0 0.00 0.00 0.00 10 1010.2
20260509004639 70 8 0.0 0.0 0.00 0.00 0.00 10 1010.3
20260509004136 70 15 1.0 3.0 0.00 0.00 0.00 10 1010.0
20260509003635 70 356 0.0 3.0 0.00 0.00 0.00 10 1009.9
20260509003132 70 17 1.0 3.0 0.00 0.00 0.00 10 1009.9
20260509002629 70 27 0.0 0.0 0.00 0.00 0.00 10 1010.2
20260509002126 70 33 0.0 0.0 0.00 0.00 0.00 10 1010.1
20260509001624 70 23 0.0 0.0 0.00 0.00 0.00 10 1010.1
20260509001119 71 8 0.0 5.0 0.00 0.00 0.00 10 1009.9
20260509000618 71 15 2.0 5.0 0.00 0.00 0.00 10 1010.1
20260509000114 71 20 2.0 2.0 0.00 0.00 0.00 10 1009.9
20260508235612 71 6 0.0 2.0 0.00 0.00 0.00 10 1009.9
20260508235108 72 344 1.0 2.0 0.00 0.00 0.00 10 1009.9
20260508234606 72 352 0.0 1.0 0.00 0.00 0.00 10 1009.9
20260508234102 73 20 0.0 1.0 0.00 0.00 0.00 10 1009.7
20260508233601 72 340 0.0 2.0 0.00 0.00 0.00 10 1009.8
20260508233058 73 356 0.0 2.0 0.00 0.00 0.00 10 1009.8
20260508232555 73 358 1.0 5.0 0.00 0.00 0.00 10 1009.7
20260508232052 73 10 0.0 0.0 0.00 0.00 0.00 10 1009.9
20260508231550 74 348 2.0 3.0 0.00 0.00 0.00 10 1010.0
20260508231047 73 2 3.0 6.0 0.00 0.00 0.00 10 1010.0
20260508230543 74 349 1.0 3.0 0.00 0.00 0.00 10 1010.0
20260508230040 73 327 0.0 5.0 0.00 0.00 0.00 10 1009.6
20260508225537 73 6 0.0 1.0 0.00 0.00 0.00 10 1010.0
20260508225034 73 336 0.0 2.0 0.00 0.00 0.00 10 1009.8
20260508224532 75 14 0.0 3.0 0.00 0.00 0.00 10 1009.9
20260508224029 74 358 1.0 6.0 0.00 0.00 0.00 10 1009.9
20260508223527 74 334 0.0 1.0 0.00 0.00 0.00 10 1009.9
20260508223024 73 341 1.0 5.0 0.00 0.00 0.00 10 1009.9
20260508222521 74 355 0.0 3.0 0.00 0.00 0.00 10 1009.8
20260508222017 73 353 21.0 25.0 0.00 0.00 0.00 10 1009.8
20260508221514 74 19 1.0 3.0 0.00 0.00 0.00 10 1009.9
20260508221010 73 5 1.0 2.0 0.00 0.00 0.00 10 1010.2
20260508220507 74 335 0.0 3.0 0.00 0.00 0.00 10 1009.8
20260508220003 74 322 1.0 6.0 0.00 0.00 0.00 10 1009.9
20260508215459 74 8 2.0 5.0 0.00 0.00 0.00 10 1009.9
20260508214956 73 359 1.0 3.0 0.00 0.00 0.00 10 1010.0
20260508214454 73 336 0.0 8.0 0.00 0.00 0.00 10 1010.2
20260508213950 74 335 4.0 9.0 0.00 0.00 0.00 10 1010.1
20260508213448 72 335 1.0 2.0 0.00 0.00 0.00 10 1010.1
20260508212942 73 311 0.0 1.0 0.00 0.00 0.00 10 1010.1
20260508212440 73 3 0.0 3.0 0.00 0.00 0.00 10 1010.2
20260508211936 73 329 0.0 0.0 0.00 0.00 0.00 10 1010.1
20260508211431 73 327 2.0 3.0 0.00 0.00 0.00 10 1010.2
20260508210929 74 349 1.0 6.0 0.00 0.00 0.00 10 1010.1
20260508210425 73 350 0.0 1.0 0.00 0.00 0.00 10 1010.0
20260508205922 72 354 1.0 2.0 0.00 0.00 0.00 10 1010.3
20260508205419 74 343 2.0 6.0 0.00 0.00 0.00 10 1010.0
20260508204915 74 349 0.0 2.0 0.00 0.00 0.00 10 1010.1
20260508204412 74 329 0.0 7.0 0.00 0.00 0.00 10 1010.1
20260508203908 73 325 1.0 2.0 0.00 0.00 0.00 10 1010.0
20260508203404 73 338 0.0 3.0 0.00 0.00 0.00 10 1010.3
20260508202900 73 326 1.0 2.0 0.00 0.00 0.00 10 1010.3
20260508202357 73 312 2.0 7.0 0.00 0.00 0.00 10 1010.2
20260508201855 73 359 1.0 3.0 0.00 0.00 0.00 10 1010.3
20260508201351 73 12 0.0 3.0 0.00 0.00 0.00 10 1010.1
20260508200848 72 326 5.0 7.0 0.00 0.00 0.00 10 1010.2
20260508200345 73 331 1.0 6.0 0.00 0.00 0.00 10 1010.3
20260508195840 73 329 1.0 3.0 0.00 0.00 0.00 10 1010.1
20260508195337 73 305 1.0 2.0 0.00 0.00 0.00 10 1010.3